When you browse on this site, cookies collect data to enhance your experience and personalize the content and advertising you see.
Visit our Privacy Policy to learn more. By continuing to use the site, you agree to this use of cookies and data.
  • en France
  • Liste des pays
  • À 7 jours
  • Température de l'eau
  • Carte météo
  • Widgets météo
  • user-avatar
    Se connecter

    Météo par heure à Quito

    Ce jour, 5 Juin, Vendredi

    Heure Température Précipitation Vent Pression Humidité
    00:00 +14°C° 0 mm 0 m/s 623 mmHg 61%
    01:00 +14°C° 0 mm 0 m/s 624 mmHg 63%
    02:00 +14°C° 0 mm 1 m/s 623 mmHg 65%
    03:00 +13°C° 0 mm 1 m/s 623 mmHg 67%
    04:00 +13°C° 0 mm 1 m/s 623 mmHg 69%
    05:00 +13°C° 0 mm 1 m/s 623 mmHg 68%
    06:00 +14°C° 0 mm 1 m/s 624 mmHg 66%
    07:00 +14°C° 0 mm 1 m/s 625 mmHg 64%
    08:00 +17°C° 0 mm 2 m/s 626 mmHg 55%
    09:00 +20°C° 0 mm 2 m/s 626 mmHg 45%
    10:00 +24°C° 0 mm 3 m/s 627 mmHg 36%
    11:00 +25°C° 0 mm 2 m/s 627 mmHg 33%
    12:00 +27°C° 0 mm 2 m/s 627 mmHg 31%
    13:00 +28°C° 0 mm 2 m/s 626 mmHg 28%
    14:00 +27°C° 0 mm 2 m/s 626 mmHg 29%
    15:00 +27°C° 0 mm 2 m/s 625 mmHg 29%
    16:00 +27°C° 0 mm 2 m/s 624 mmHg 29%
    17:00 +24°C° 0 mm 2 m/s 624 mmHg 35%
    18:00 +20°C° 0 mm 2 m/s 624 mmHg 41%
    19:00 +19°C° 0 mm 1 m/s 624 mmHg 46%
    20:00 +18°C° 0 mm 1 m/s 624 mmHg 45%
    21:00 +18°C° 0 mm 1 m/s 624 mmHg 44%
    22:00 +15°C° 0 mm 0 m/s 624 mmHg 44%
    23:00 +15°C° 0 mm 1 m/s 624 mmHg 46%

    Demain, 6 Juin, Samedi

    Heure Température Précipitation Vent Pression Humidité
    00:00 +15°C° 0 mm 1 m/s 624 mmHg 48%
    01:00 +14°C° 0 mm 1 m/s 624 mmHg 51%
    02:00 +13°C° 0 mm 1 m/s 623 mmHg 53%
    03:00 +13°C° 0 mm 1 m/s 623 mmHg 55%
    04:00 +12°C° 0 mm 1 m/s 623 mmHg 57%
    05:00 +13°C° 0 mm 1 m/s 623 mmHg 56%
    06:00 +13°C° 0 mm 1 m/s 624 mmHg 55%
    07:00 +14°C° 0 mm 1 m/s 625 mmHg 54%
    08:00 +17°C° 0 mm 2 m/s 626 mmHg 47%
    09:00 +20°C° 0 mm 3 m/s 626 mmHg 39%
    10:00 +23°C° 0 mm 4 m/s 627 mmHg 31%
    11:00 +25°C° 0 mm 3 m/s 627 mmHg 30%
    12:00 +26°C° 0 mm 3 m/s 626 mmHg 28%
    13:00 +27°C° 0 mm 2 m/s 626 mmHg 26%
    14:00 +27°C° 0 mm 2 m/s 626 mmHg 25%
    15:00 +27°C° 0 mm 2 m/s 625 mmHg 25%
    16:00 +26°C° 0 mm 1 m/s 625 mmHg 25%
    17:00 +24°C° 0 mm 1 m/s 624 mmHg 30%
    18:00 +21°C° 0 mm 1 m/s 624 mmHg 34%
    19:00 +18°C° 0 mm 1 m/s 623 mmHg 39%
    20:00 +18°C° 0 mm 1 m/s 623 mmHg 39%
    21:00 +16°C° 0 mm 1 m/s 624 mmHg 40%
    22:00 +16°C° 0 mm 1 m/s 624 mmHg 40%
    23:00 +15°C° 0 mm 1 m/s 623 mmHg 44%

    Après-demain, 7 Juin, Dimanche

    Heure Température Précipitation Vent Pression Humidité
    00:00 +14°C° 0 mm 1 m/s 623 mmHg 48%
    01:00 +13°C° 0 mm 1 m/s 623 mmHg 51%
    02:00 +12°C° 0 mm 1 m/s 622 mmHg 53%
    03:00 +12°C° 0 mm 1 m/s 622 mmHg 55%
    04:00 +11°C° 0 mm 1 m/s 622 mmHg 57%
    05:00 +12°C° 0 mm 1 m/s 623 mmHg 57%
    06:00 +12°C° 0 mm 1 m/s 623 mmHg 57%
    07:00 +12°C° 0 mm 1 m/s 624 mmHg 57%
    08:00 +15°C° 0 mm 2 m/s 625 mmHg 48%
    09:00 +19°C° 0 mm 3 m/s 625 mmHg 40%
    10:00 +22°C° 0 mm 4 m/s 626 mmHg 31%
    11:00 +24°C° 0 mm 3 m/s 626 mmHg 29%
    12:00 +25°C° 0 mm 3 m/s 626 mmHg 27%
    13:00 +26°C° 0 mm 2 m/s 625 mmHg 25%
    14:00 +26°C° 0 mm 2 m/s 625 mmHg 25%
    15:00 +26°C° 0 mm 2 m/s 625 mmHg 25%
    16:00 +26°C° 0 mm 2 m/s 624 mmHg 25%
    17:00 +23°C° 0 mm 1 m/s 624 mmHg 30%
    18:00 +20°C° 0 mm 1 m/s 623 mmHg 35%
    19:00 +16°C° 0 mm 1 m/s 622 mmHg 40%
    20:00 +16°C° 0 mm 1 m/s 623 mmHg 41%
    21:00 +15°C° 0 mm 1 m/s 623 mmHg 41%
    22:00 +15°C° 0 mm 1 m/s 623 mmHg 41%
    23:00 +14°C° 0 mm 1 m/s 623 mmHg 44%

    8 Juin, Lundi

    Heure Température Précipitation Vent Pression Humidité
    00:00 +13°C° 0 mm 1 m/s 622 mmHg 46%
    01:00 +12°C° 0 mm 1 m/s 622 mmHg 49%
    02:00 +12°C° 0 mm 1 m/s 622 mmHg 50%
    03:00 +11°C° 0 mm 1 m/s 621 mmHg 52%
    04:00 +11°C° 0 mm 1 m/s 621 mmHg 53%
    05:00 +11°C° 0 mm 1 m/s 622 mmHg 53%
    06:00 +11°C° 0 mm 1 m/s 622 mmHg 53%
    07:00 +12°C° 0 mm 1 m/s 623 mmHg 53%
    08:00 +15°C° 0 mm 2 m/s 624 mmHg 46%
    09:00 +18°C° 0 mm 2 m/s 625 mmHg 39%
    10:00 +22°C° 0 mm 3 m/s 625 mmHg 32%
    11:00 +24°C° 0 mm 3 m/s 625 mmHg 29%
    12:00 +26°C° 0 mm 2 m/s 625 mmHg 26%
    13:00 +28°C° 0 mm 1 m/s 625 mmHg 23%
    14:00 +27°C° 0 mm 1 m/s 625 mmHg 23%
    15:00 +26°C° 0 mm 2 m/s 624 mmHg 23%
    16:00 +26°C° 0 mm 2 m/s 624 mmHg 23%
    17:00 +23°C° 0 mm 2 m/s 623 mmHg 29%
    18:00 +19°C° 0 mm 2 m/s 623 mmHg 34%
    19:00 +16°C° 0 mm 1 m/s 622 mmHg 40%
    20:00 +16°C° 0 mm 1 m/s 622 mmHg 40%
    21:00 +15°C° 0 mm 1 m/s 622 mmHg 40%
    22:00 +14°C° 0 mm 1 m/s 622 mmHg 41%
    23:00 +14°C° 0 mm 1 m/s 622 mmHg 43%

    9 Juin, Mardi

    Heure Température Précipitation Vent Pression Humidité
    00:00 +13°C° 0 mm 1 m/s 622 mmHg 46%
    01:00 +12°C° 0 mm 1 m/s 622 mmHg 48%
    02:00 +11°C° 0 mm 1 m/s 621 mmHg 50%
    03:00 +11°C° 0 mm 1 m/s 621 mmHg 53%
    04:00 +10°C° 0 mm 1 m/s 621 mmHg 55%
    05:00 +11°C° 0 mm 1 m/s 621 mmHg 55%
    06:00 +11°C° 0 mm 1 m/s 622 mmHg 55%
    07:00 +11°C° 0 mm 0 m/s 623 mmHg 55%
    08:00 +15°C° 0 mm 1 m/s 623 mmHg 47%
    09:00 +19°C° 0 mm 2 m/s 624 mmHg 39%
    10:00 +22°C° 0 mm 3 m/s 625 mmHg 31%
    11:00 +24°C° 0 mm 3 m/s 625 mmHg 29%
    12:00 +25°C° 0 mm 2 m/s 625 mmHg 26%
    13:00 +27°C° 0 mm 2 m/s 625 mmHg 24%
    14:00 +26°C° 0 mm 2 m/s 624 mmHg 24%
    15:00 +26°C° 0 mm 2 m/s 624 mmHg 24%
    16:00 +26°C° 0 mm 2 m/s 623 mmHg 24%
    17:00 +23°C° 0 mm 1 m/s 623 mmHg 29%
    18:00 +20°C° 0 mm 1 m/s 622 mmHg 34%
    19:00 +16°C° 0 mm 1 m/s 622 mmHg 38%
    20:00 +16°C° 0 mm 1 m/s 622 mmHg 38%
    21:00 +15°C° 0 mm 1 m/s 622 mmHg 37%
    22:00 +14°C° 0 mm 0 m/s 622 mmHg 37%
    23:00 +14°C° 0 mm 1 m/s 622 mmHg 39%

    10 Juin, Mercredi

    Heure Température Précipitation Vent Pression Humidité
    00:00 +14°C° 0 mm 1 m/s 622 mmHg 41%
    01:00 +13°C° 0 mm 1 m/s 622 mmHg 43%
    02:00 +12°C° 0 mm 1 m/s 622 mmHg 46%
    03:00 +12°C° 0 mm 1 m/s 622 mmHg 49%
    04:00 +11°C° 0 mm 1 m/s 621 mmHg 52%
    05:00 +11°C° 0 mm 1 m/s 622 mmHg 53%
    06:00 +12°C° 0 mm 1 m/s 622 mmHg 53%
    07:00 +12°C° 0 mm 1 m/s 623 mmHg 54%
    08:00 +15°C° 0 mm 2 m/s 624 mmHg 45%
    09:00 +19°C° 0 mm 2 m/s 625 mmHg 37%
    10:00 +22°C° 0 mm 3 m/s 626 mmHg 29%
    11:00 +25°C° 0 mm 2 m/s 625 mmHg 26%
    12:00 +26°C° 0 mm 2 m/s 625 mmHg 24%
    13:00 +27°C° 0 mm 2 m/s 625 mmHg 22%
    14:00 +27°C° 0 mm 2 m/s 624 mmHg 23%
    15:00 +26°C° 0 mm 2 m/s 624 mmHg 23%
    16:00 +26°C° 0 mm 2 m/s 623 mmHg 23%
    17:00 +23°C° 0 mm 2 m/s 623 mmHg 28%
    18:00 +20°C° 0 mm 1 m/s 622 mmHg 33%
    19:00 +18°C° 0 mm 1 m/s 622 mmHg 37%
    20:00 +16°C° 0 mm 1 m/s 622 mmHg 37%
    21:00 +16°C° 0 mm 1 m/s 622 mmHg 36%
    22:00 +15°C° 0 mm 1 m/s 623 mmHg 35%
    23:00 +15°C° 0 mm 1 m/s 622 mmHg 37%
    Voir plus